When you browse on this site, cookies collect data to enhance your experience and personalize the content and advertising you see.
Visit our Privacy Policy to learn more. By continuing to use the site, you agree to this use of cookies and data.
  • In Deutschland
  • Länderverzeichnis
  • Für 7 Tage
  • Wassertemperatur
  • Satellitenkarten
  • Wetterkarte
  • Widgets
  • user-avatar
    Anmelden

    Stündliche Wetter Naschawar

    Heute, 15 Juli, Montag

    Zeit Temperatur Niederschläge Wind Luftdruck Luftfeuchtigkeit
    00:00 +34°C° 0.8 mm 4 m/S 719 mmHg 61%
    01:00 +34°C° 0.8 mm 3 m/S 719 mmHg 65%
    02:00 +33°C° 0.8 mm 3 m/S 718 mmHg 69%
    03:00 +31°C° 0.7 mm 3 m/S 718 mmHg 71%
    04:00 +30°C° 0.7 mm 3 m/S 718 mmHg 73%
    05:00 +30°C° 0 mm 3 m/S 718 mmHg 74%
    06:00 +30°C° 0.3 mm 2 m/S 718 mmHg 73%
    07:00 +30°C° 0.3 mm 2 m/S 718 mmHg 72%
    08:00 +30°C° 0.3 mm 2 m/S 719 mmHg 70%
    09:00 +31°C° 0 mm 2 m/S 719 mmHg 66%
    10:00 +32°C° 0 mm 2 m/S 719 mmHg 62%
    11:00 +34°C° 0 mm 2 m/S 719 mmHg 60%
    12:00 +35°C° 0 mm 2 m/S 719 mmHg 55%
    13:00 +37°C° 0 mm 2 m/S 718 mmHg 49%
    14:00 +38°C° 0 mm 2 m/S 718 mmHg 44%
    15:00 +38°C° 0 mm 3 m/S 718 mmHg 42%
    16:00 +39°C° 0 mm 3 m/S 718 mmHg 40%
    17:00 +40°C° 0 mm 4 m/S 718 mmHg 39%
    18:00 +38°C° 0 mm 4 m/S 718 mmHg 42%
    19:00 +37°C° 0 mm 4 m/S 718 mmHg 45%
    20:00 +36°C° 0 mm 4 m/S 719 mmHg 49%
    21:00 +36°C° 0 mm 4 m/S 719 mmHg 51%
    22:00 +35°C° 0 mm 3 m/S 720 mmHg 53%
    23:00 +35°C° 0 mm 3 m/S 721 mmHg 56%

    Morgen, 16 Juli, Dienstag

    Zeit Temperatur Niederschläge Wind Luftdruck Luftfeuchtigkeit
    00:00 +35°C° 0.1 mm 2 m/S 720 mmHg 57%
    01:00 +34°C° 0.1 mm 2 m/S 720 mmHg 58%
    02:00 +34°C° 0.1 mm 2 m/S 720 mmHg 60%
    03:00 +32°C° 1 mm 2 m/S 720 mmHg 63%
    04:00 +31°C° 1 mm 1 m/S 720 mmHg 66%
    05:00 +31°C° 1 mm 1 m/S 720 mmHg 69%
    06:00 +31°C° 0.4 mm 1 m/S 720 mmHg 67%
    07:00 +32°C° 0.4 mm 1 m/S 721 mmHg 65%
    08:00 +32°C° 0.4 mm 1 m/S 721 mmHg 63%
    09:00 +33°C° 0 mm 1 m/S 721 mmHg 59%
    10:00 +35°C° 0 mm 1 m/S 721 mmHg 54%
    11:00 +36°C° 0 mm 1 m/S 721 mmHg 50%
    12:00 +37°C° 0 mm 1 m/S 721 mmHg 45%
    13:00 +39°C° 0 mm 2 m/S 720 mmHg 41%
    14:00 +40°C° 0 mm 2 m/S 720 mmHg 37%
    15:00 +41°C° 0 mm 2 m/S 720 mmHg 36%
    16:00 +42°C° 0 mm 3 m/S 720 mmHg 34%
    17:00 +43°C° 0 mm 3 m/S 720 mmHg 33%
    18:00 +42°C° 0 mm 3 m/S 720 mmHg 35%
    19:00 +40°C° 0 mm 3 m/S 720 mmHg 38%
    20:00 +39°C° 0 mm 3 m/S 720 mmHg 40%
    21:00 +38°C° 0.1 mm 3 m/S 721 mmHg 43%
    22:00 +38°C° 0.1 mm 2 m/S 721 mmHg 45%
    23:00 +37°C° 0.1 mm 2 m/S 721 mmHg 47%

    übermorgen, 17 Juli, Mittwoch

    Zeit Temperatur Niederschläge Wind Luftdruck Luftfeuchtigkeit
    00:00 +36°C° 0.2 mm 2 m/S 721 mmHg 49%
    01:00 +36°C° 0.2 mm 2 m/S 721 mmHg 51%
    02:00 +35°C° 0.2 mm 2 m/S 721 mmHg 53%
    03:00 +35°C° 0.3 mm 2 m/S 721 mmHg 56%
    04:00 +34°C° 0.3 mm 2 m/S 721 mmHg 59%
    05:00 +34°C° 0.3 mm 2 m/S 721 mmHg 62%
    06:00 +34°C° 0 mm 2 m/S 721 mmHg 61%
    07:00 +35°C° 0 mm 2 m/S 721 mmHg 60%
    08:00 +35°C° 0 mm 2 m/S 722 mmHg 59%
    09:00 +36°C° 0 mm 2 m/S 722 mmHg 54%
    10:00 +37°C° 0 mm 2 m/S 722 mmHg 50%
    11:00 +39°C° 0 mm 2 m/S 721 mmHg 46%
    12:00 +39°C° 0 mm 2 m/S 721 mmHg 43%
    13:00 +40°C° 0 mm 2 m/S 721 mmHg 40%
    14:00 +41°C° 0 mm 2 m/S 721 mmHg 37%
    15:00 +43°C° 0 mm 3 m/S 720 mmHg 37%
    16:00 +43°C° 0 mm 3 m/S 720 mmHg 36%
    17:00 +43°C° 0 mm 3 m/S 720 mmHg 35%
    18:00 +42°C° 0 mm 3 m/S 720 mmHg 37%
    19:00 +42°C° 0 mm 3 m/S 720 mmHg 39%
    20:00 +40°C° 0 mm 3 m/S 721 mmHg 41%
    21:00 +37°C° 0.2 mm 3 m/S 721 mmHg 51%
    22:00 +37°C° 0.2 mm 3 m/S 721 mmHg 54%
    23:00 +36°C° 0.2 mm 2 m/S 722 mmHg 56%

    18 Juli, Donnerstag

    Zeit Temperatur Niederschläge Wind Luftdruck Luftfeuchtigkeit
    00:00 +36°C° 0.2 mm 2 m/S 721 mmHg 58%
    01:00 +35°C° 0.2 mm 2 m/S 721 mmHg 59%
    02:00 +35°C° 0.2 mm 2 m/S 721 mmHg 61%
    03:00 +33°C° 1.2 mm 1 m/S 720 mmHg 63%
    04:00 +33°C° 1.2 mm 1 m/S 720 mmHg 65%
    05:00 +32°C° 1.2 mm 1 m/S 720 mmHg 68%
    06:00 +33°C° 0.5 mm 1 m/S 720 mmHg 65%
    07:00 +33°C° 0.5 mm 1 m/S 720 mmHg 63%
    08:00 +35°C° 0.5 mm 2 m/S 720 mmHg 61%
    09:00 +36°C° 0.1 mm 2 m/S 721 mmHg 58%
    10:00 +37°C° 0.1 mm 2 m/S 721 mmHg 54%
    11:00 +38°C° 0.1 mm 2 m/S 721 mmHg 50%
    12:00 +39°C° 0 mm 2 m/S 720 mmHg 46%
    13:00 +40°C° 0 mm 2 m/S 720 mmHg 42%
    14:00 +41°C° 0 mm 2 m/S 720 mmHg 39%
    15:00 +42°C° 0 mm 2 m/S 720 mmHg 37%
    16:00 +43°C° 0 mm 3 m/S 720 mmHg 36%
    17:00 +44°C° 0 mm 3 m/S 719 mmHg 35%
    18:00 +43°C° 0 mm 3 m/S 720 mmHg 36%
    19:00 +42°C° 0 mm 3 m/S 720 mmHg 38%
    20:00 +40°C° 0 mm 3 m/S 720 mmHg 40%
    21:00 +39°C° 0 mm 3 m/S 720 mmHg 44%
    22:00 +39°C° 0 mm 3 m/S 721 mmHg 48%
    23:00 +38°C° 0 mm 2 m/S 721 mmHg 52%

    19 Juli, Freitag

    Zeit Temperatur Niederschläge Wind Luftdruck Luftfeuchtigkeit
    00:00 +37°C° 0 mm 2 m/S 721 mmHg 53%
    01:00 +37°C° 0 mm 2 m/S 721 mmHg 55%
    02:00 +36°C° 0 mm 1 m/S 720 mmHg 56%
    03:00 +36°C° 0.5 mm 2 m/S 720 mmHg 59%
    04:00 +35°C° 0.5 mm 2 m/S 721 mmHg 61%
    05:00 +35°C° 0.5 mm 2 m/S 721 mmHg 63%
    06:00 +35°C° 1 mm 2 m/S 721 mmHg 64%
    07:00 +35°C° 1 mm 2 m/S 721 mmHg 65%
    08:00 +34°C° 1 mm 2 m/S 721 mmHg 66%
    09:00 +36°C° 0.2 mm 2 m/S 721 mmHg 62%
    10:00 +37°C° 0.2 mm 2 m/S 722 mmHg 57%
    11:00 +38°C° 0.2 mm 2 m/S 722 mmHg 52%
    12:00 +39°C° 0 mm 2 m/S 722 mmHg 48%
    13:00 +41°C° 0 mm 2 m/S 721 mmHg 44%
    14:00 +42°C° 0 mm 2 m/S 721 mmHg 39%
    15:00 +42°C° 0 mm 2 m/S 721 mmHg 38%
    16:00 +44°C° 0 mm 3 m/S 721 mmHg 36%
    17:00 +44°C° 0 mm 3 m/S 721 mmHg 34%
    18:00 +43°C° 0 mm 3 m/S 721 mmHg 38%
    19:00 +42°C° 0 mm 3 m/S 721 mmHg 41%
    20:00 +40°C° 0 mm 3 m/S 721 mmHg 44%
    21:00 +39°C° 0 mm 3 m/S 722 mmHg 47%
    22:00 +39°C° 0 mm 3 m/S 722 mmHg 49%
    23:00 +38°C° 0 mm 2 m/S 722 mmHg 52%

    20 Juli, Samstag

    Zeit Temperatur Niederschläge Wind Luftdruck Luftfeuchtigkeit
    00:00 +37°C° 0.7 mm 2 m/S 722 mmHg 55%
    01:00 +37°C° 0.7 mm 2 m/S 722 mmHg 57%
    02:00 +36°C° 0.7 mm 2 m/S 722 mmHg 60%
    03:00 +35°C° 0.7 mm 2 m/S 721 mmHg 63%
    04:00 +35°C° 0.7 mm 2 m/S 721 mmHg 66%
    05:00 +34°C° 0.7 mm 2 m/S 721 mmHg 69%
    06:00 +34°C° 0.5 mm 2 m/S 722 mmHg 68%
    07:00 +35°C° 0.5 mm 2 m/S 722 mmHg 66%
    08:00 +34°C° 0.5 mm 1 m/S 722 mmHg 65%
    09:00 +35°C° 0 mm 1 m/S 722 mmHg 60%
    10:00 +37°C° 0 mm 1 m/S 722 mmHg 56%
    11:00 +39°C° 0 mm 2 m/S 722 mmHg 51%
    12:00 +40°C° 0 mm 2 m/S 722 mmHg 47%
    13:00 +41°C° 0 mm 2 m/S 721 mmHg 44%
    14:00 +42°C° 0 mm 2 m/S 721 mmHg 40%
    15:00 +44°C° 0 mm 3 m/S 721 mmHg 38%
    16:00 +44°C° 0 mm 3 m/S 720 mmHg 36%
    17:00 +45°C° 0 mm 3 m/S 720 mmHg 34%
    18:00 +43°C° 0 mm 3 m/S 720 mmHg 38%
    19:00 +42°C° 0 mm 3 m/S 720 mmHg 42%
    20:00 +40°C° 0 mm 3 m/S 720 mmHg 47%
    21:00 +39°C° 0 mm 3 m/S 720 mmHg 48%
    22:00 +39°C° 0 mm 2 m/S 720 mmHg 50%
    23:00 +38°C° 0 mm 2 m/S 721 mmHg 51%
    Mehr zeigen